Location: Bühlhof
(48.7849°N, 8.6361°E)
Time: 23:05:56
(UTC+00:00)

ISS - Pass Details

Date: 19 January 2026
Orbit: 414 x 429 km, 51.6° (Epoch: 7 February)

Event Time Altitude Azimuth Distance (km) Brightness Sun altitude
Rises 17:31:45 0° 265° (W) 2,359 1.9 -14.3°
Reaches altitude 10° 17:33:52 10° 270° (W) 1,500 0.3 -14.7°
Maximum altitude 17:37:11 57° 350° (N) 503 -3.5 -15.2°
Enters shadow 17:38:25 33° 54° (NE) 731 -3.1 -15.4°
